Precipitable_Water
1.28 1.23 1.20 1.17 1.17 1.20 1.23 1.24 1.26 1.29 1.22 1.20 1.21 1.23 1.22 1.25 1.27 1.34 1.42 1.50 1.53 1.49 1.45 1.48 1.55 1.57 1.60 1.61 1.63 1.64 1.65 1.65 1.55 1.50 1.44 1.40 1.34 1.23 1.17 1.22 1.31 1.31
1.23 1.22 1.22 1.19 1.17 1.21 1.22 1.25 1.27 1.26 1.23 1.18 1.19 1.27 1.31 1.27 1.31 1.28 1.34 1.41 1.52 1.52 1.50 1.45 1.46 1.51 1.53 1.51 1.55 1.57 1.60 1.62 1.55 1.57 1.48 1.36 1.36 1.29 1.20 1.23 1.28 1.33
1.19 1.20 1.17 1.11 1.10 1.12 1.15 1.23 1.26 1.27 1.23 1.21 1.18 1.18 1.27 1.33 1.31 1.33 1.30 1.33 1.40 1.50 1.56 1.49 1.47 1.47 1.46 1.47 1.49 1.53 1.57 1.58 1.55 1.56 1.50 1.38 1.36 1.33 1.25 1.25 1.27 1.29
1.16 1.14 1.13 1.11 1.12 1.15 1.20 1.21 1.22 1.23 1.23 1.21 1.19 1.17 1.18 1.28 1.34 1.34 1.33 1.28 1.31 1.39 1.49 1.53 1.49 1.49 1.51 1.49 1.50 1.47 1.51 1.58 1.59 1.58 1.52 1.46 1.37 1.35 1.31 1.24 1.26 1.30
1.11 1.11 1.13 1.14 1.14 1.17 1.23 1.19 1.15 1.17 1.17 1.18 1.22 1.22 1.18 1.16 1.27 1.34 1.36 1.32 1.27 1.32 1.41 1.46 1.47 1.47 1.49 1.48 1.52 1.49 1.46 1.52 1.59 1.58 1.52 1.46 1.41 1.34 1.35 1.27 1.20 1.23
1.14 1.14 1.12 1.13 1.12 1.14 1.14 1.14 1.12 1.14 1.18 1.19 1.18 1.24 1.22 1.20 1.18 1.26 1.31 1.32 1.34 1.25 1.29 1.42 1.48 1.48 1.48 1.47 1.46 1.50 1.47 1.46 1.54 1.58 1.53 1.47 1.44 1.37 1.35 1.33 1.22 1.18
1.09 1.11 1.11 1.13 1.13 1.14 1.12 1.11 1.16 1.15 1.17 1.22 1.26 1.22 1.26 1.25 1.21 1.19 1.26 1.29 1.30 1.33 1.22 1.30 1.41 1.46 1.49 1.47 1.47 1.43 1.43 1.43 1.49 1.53 1.51 1.52 1.49 1.40 1.37 1.37 1.30 1.20
1.06 1.10 1.12 1.14 1.11 1.12 1.10 1.12 1.16 1.19 1.17 1.23 1.24 1.25 1.25 1.24 1.25 1.23 1.21 1.24 1.27 1.31 1.27 1.27 1.37 1.44 1.48 1.48 1.43 1.39 1.34 1.38 1.41 1.46 1.47 1.46 1.47 1.43 1.42 1.37 1.37 1.27
1.07 1.09 1.11 1.11 1.10 1.11 1.12 1.13 1.17 1.22 1.25 1.21 1.22 1.26 1.29 1.24 1.24 1.24 1.23 1.20 1.19 1.25 1.29 1.27 1.31 1.42 1.48 1.49 1.49 1.43 1.30 1.30 1.37 1.41 1.43 1.41 1.39 1.41 1.43 1.41 1.35 1.31
1.08 1.11 1.13 1.13 1.12 1.14 1.15 1.16 1.21 1.26 1.29 1.25 1.23 1.24 1.28 1.28 1.24 1.26 1.27 1.22 1.16 1.17 1.24 1.26 1.29 1.35 1.41 1.48 1.48 1.48 1.39 1.30 1.32 1.38 1.42 1.41 1.37 1.39 1.44 1.44 1.38 1.34
1.08 1.11 1.12 1.13 1.14 1.17 1.15 1.19 1.23 1.27 1.31 1.27 1.24 1.19 1.24 1.32 1.29 1.29 1.29 1.27 1.19 1.15 1.15 1.21 1.25 1.29 1.34 1.38 1.47 1.51 1.50 1.39 1.33 1.35 1.40 1.42 1.40 1.39 1.42 1.44 1.42 1.38
1.08 1.07 1.08 1.10 1.12 1.15 1.16 1.18 1.22 1.23 1.27 1.32 1.26 1.20 1.21 1.29 1.34 1.28 1.26 1.26 1.23 1.19 1.16 1.17 1.21 1.24 1.28 1.30 1.35 1.43 1.47 1.48 1.39 1.35 1.38 1.41 1.42 1.42 1.42 1.44 1.43 1.40
1.16 1.13 1.12 1.13 1.13 1.14 1.18 1.20 1.19 1.21 1.23 1.28 1.33 1.25 1.22 1.20 1.30 1.33 1.29 1.26 1.26 1.23 1.19 1.18 1.18 1.19 1.21 1.26 1.28 1.34 1.38 1.41 1.39 1.36 1.36 1.39 1.41 1.43 1.45 1.46 1.46 1.45
1.28 1.28 1.26 1.24 1.26 1.23 1.19 1.18 1.19 1.19 1.24 1.27 1.36 1.31 1.23 1.22 1.24 1.34 1.35 1.31 1.29 1.24 1.23 1.23 1.20 1.18 1.19 1.22 1.25 1.28 1.32 1.34 1.34 1.32 1.34 1.36 1.38 1.40 1.42 1.45 1.49 1.49
1.39 1.43 1.43 1.40 1.42 1.41 1.32 1.23 1.23 1.25 1.27 1.30 1.32 1.34 1.32 1.28 1.27 1.30 1.41 1.37 1.33 1.31 1.27 1.25 1.23 1.20 1.20 1.21 1.22 1.24 1.28 1.29 1.29 1.26 1.28 1.31 1.34 1.35 1.36 1.38 1.44 1.50
1.46 1.48 1.50 1.52 1.48 1.47 1.46 1.38 1.34 1.37 1.36 1.33 1.35 1.34 1.35 1.34 1.31 1.30 1.34 1.42 1.37 1.33 1.29 1.24 1.23 1.25 1.23 1.21 1.21 1.23 1.22 1.23 1.27 1.25 1.24 1.27 1.29 1.30 1.32 1.34 1.34 1.41
1.53 1.52 1.55 1.53 1.53 1.50 1.52 1.50 1.44 1.43 1.41 1.42 1.42 1.42 1.39 1.40 1.36 1.31 1.29 1.35 1.47 1.43 1.33 1.27 1.25 1.23 1.24 1.19 1.17 1.19 1.23 1.21 1.18 1.22 1.22 1.21 1.25 1.26 1.23 1.26 1.31 1.34
1.60 1.60 1.57 1.54 1.55 1.54 1.53 1.53 1.52 1.47 1.45 1.43 1.46 1.44 1.43 1.46 1.44 1.38 1.38 1.36 1.41 1.47 1.39 1.31 1.27 1.25 1.21 1.18 1.16 1.15 1.15 1.20 1.21 1.19 1.22 1.21 1.20 1.24 1.28 1.25 1.24 1.30
1.68 1.66 1.61 1.57 1.55 1.55 1.56 1.55 1.52 1.48 1.45 1.45 1.45 1.50 1.52 1.48 1.49 1.48 1.46 1.46 1.43 1.47 1.49 1.44 1.37 1.33 1.27 1.24 1.20 1.16 1.14 1.14 1.20 1.23 1.22 1.21 1.21 1.21 1.24 1.29 1.25 1.21
1.68 1.66 1.62 1.60 1.62 1.60 1.58 1.54 1.51 1.46 1.45 1.49 1.51 1.53 1.51 1.51 1.51 1.51 1.52 1.50 1.48 1.47 1.53 1.56 1.54 1.50 1.43 1.37 1.32 1.27 1.23 1.19 1.18 1.23 1.25 1.24 1.25 1.24 1.23 1.25 1.28 1.22
1.62 1.61 1.59 1.61 1.63 1.60 1.57 1.52 1.48 1.48 1.48 1.48 1.49 1.48 1.47 1.47 1.48 1.48 1.51 1.53 1.53 1.53 1.52 1.54 1.60 1.61 1.56 1.49 1.44 1.41 1.38 1.33 1.30 1.28 1.29 1.31 1.32 1.33 1.30 1.27 1.28 1.29
1.53 1.51 1.53 1.55 1.55 1.53 1.48 1.44 1.45 1.46 1.46 1.49 1.50 1.52 1.55 1.56 1.56 1.54 1.52 1.53 1.58 1.57 1.53 1.51 1.57 1.61 1.58 1.56 1.52 1.49 1.48 1.46 1.41 1.35 1.32 1.32 1.35 1.37 1.38 1.37 1.35 1.34
1.51 1.49 1.48 1.48 1.48 1.46 1.43 1.42 1.42 1.47 1.51 1.56 1.49 1.50 1.52 1.54 1.55 1.57 1.60 1.60 1.59 1.59 1.55 1.52 1.57 1.60 1.59 1.57 1.54 1.52 1.51 1.49 1.47 1.45 1.41 1.36 1.34 1.38 1.41 1.40 1.38 1.38
1.51 1.49 1.46 1.45 1.44 1.40 1.39 1.42 1.48 1.53 1.53 1.57 1.50 1.47 1.47 1.53 1.60 1.62 1.63 1.63 1.61 1.60 1.61 1.58 1.57 1.63 1.60 1.60 1.59 1.58 1.55 1.51 1.49 1.46 1.41 1.40 1.41 1.44 1.46 1.44 1.43 1.41
1.52 1.50 1.49 1.46 1.42 1.41 1.45 1.46 1.46 1.48 1.53 1.56 1.54 1.53 1.51 1.53 1.57 1.58 1.62 1.65 1.67 1.65 1.66 1.65 1.65 1.69 1.69 1.65 1.65 1.64 1.64 1.63 1.58 1.52 1.45 1.42 1.42 1.40 1.45 1.48 1.52 1.53
1.53 1.52 1.52 1.50 1.47 1.48 1.48 1.47 1.50 1.52 1.53 1.53 1.54 1.55 1.56 1.58 1.58 1.58 1.60 1.65 1.72 1.74 1.73 1.72 1.68 1.70 1.70 1.70 1.69 1.69 1.69 1.70 1.70 1.60 1.49 1.44 1.45 1.42 1.41 1.46 1.51 1.55
Wind_Speed
23 23 23 22 22 21 20 20 19 19 18 18 17 17 17 16 16 15 15 14 14 13 13 13 13 12 12 11 10 9 9 8 7 6 5 5 4 3 3 2 1 2
24 24 23 23 22 22 21 21 20 20 19 19 18 17 17 17 17 17 16 16 15 14 14 14 14 14 13 13 12 11 10 10 9 7 7 6 6 5 4 3 3 2
25 25 24 24 23 23 22 21 21 20 20 20 19 18 17 17 17 17 17 17 16 16 15 15 15 15 15 14 14 13 12 11 11 10 8 8 7 7 6 5 4 4
26 26 25 25 24 23 23 22 22 21 21 20 20 20 19 18 17 18 18 18 18 17 16 16 16 16 16 16 15 14 14 13 13 12 10 9 8 8 7 7 6 5
26 26 25 25 25 24 23 23 23 22 21 21 21 20 20 20 19 18 19 19 18 18 18 17 17 17 17 17 17 16 15 15 14 13 12 11 10 9 9 8 8 7
27 26 26 26 25 25 24 24 24 23 22 22 21 21 21 21 21 20 20 19 19 19 19 19 18 18 17 18 18 17 17 16 16 15 14 13 12 11 10 10 9 9
27 27 26 26 26 25 25 24 24 24 23 22 22 22 21 21 21 21 21 21 21 21 20 20 19 19 19 18 19 19 18 18 17 17 16 15 14 13 12 11 11 11
27 27 26 26 26 25 25 25 24 24 24 23 22 22 22 22 22 22 22 22 22 21 21 21 21 20 20 20 20 20 20 19 19 18 18 17 16 15 14 13 12 12
27 26 26 26 26 25 25 25 25 24 24 23 23 22 22 23 23 22 22 23 23 22 22 22 22 21 21 21 21 21 21 21 20 20 19 19 18 17 16 15 14 13
27 26 26 26 26 26 26 25 25 24 24 24 23 23 22 23 23 23 23 23 23 23 23 23 23 22 22 22 22 22 22 22 21 21 21 21 20 19 18 17 16 15
27 27 27 27 27 26 26 26 25 24 23 24 24 24 23 23 23 23 23 23 23 23 23 23 23 23 23 23 22 22 23 23 23 22 22 22 22 21 20 19 18 18
27 27 27 27 27 27 26 26 25 24 23 23 24 24 24 23 23 23 23 23 23 23 23 24 24 24 24 24 24 23 23 24 24 23 23 23 23 22 22 21 21 20
26 26 26 27 27 27 26 26 25 24 24 23 23 23 24 23 23 23 24 24 24 24 24 24 24 24 24 24 24 24 24 24 25 24 24 24 24 24 23 23 23 22
26 26 26 26 26 26 26 26 25 24 24 23 23 23 24 24 23 23 24 24 24 24 24 24 24 24 24 25 25 25 25 25 25 25 25 25 25 25 25 25 24 24
27 26 26 26 26 26 26 25 25 24 24 23 23 23 23 23 23 23 23 24 24 24 24 24 24 25 25 25 25 25 25 25 26 26 26 26 26 26 26 26 26 25
27 27 26 26 26 26 25 25 25 24 24 23 23 23 22 22 23 23 23 23 24 24 24 24 24 25 25 26 26 25 25 26 26 26 27 27 27 27 27 27 27 26
28 27 27 26 26 26 26 25 25 25 24 23 23 23 22 22 22 22 23 22 23 23 24 24 24 25 25 26 26 26 26 26 26 27 27 28 28 28 28 28 28 28
28 28 27 27 27 26 26 26 25 25 25 24 24 24 23 22 22 22 23 22 22 22 23 23 24 24 25 26 27 28 28 27 27 27 28 29 29 29 29 29 29 29
28 28 28 27 27 27 26 26 26 26 25 25 25 24 24 23 23 23 23 23 22 22 22 23 23 24 25 26 27 28 28 28 28 28 29 29 30 30 31 31 31 31
28 28 28 28 27 27 27 27 26 26 26 26 25 25 25 25 25 24 24 24 24 23 23 23 23 23 24 25 26 27 28 28 28 28 29 29 30 31 31 31 32 32
28 28 28 28 28 27 27 27 27 27 27 27 26 26 26 25 25 26 25 25 25 26 25 25 24 24 25 26 27 28 28 29 29 30 30 30 30 31 31 32 32 32
28 28 29 28 28 28 28 28 27 27 27 27 27 27 26 26 26 26 27 27 27 27 27 27 27 26 26 27 28 29 29 30 31 31 31 31 31 31 32 32 32 33
28 28 29 29 28 28 28 28 28 28 28 28 28 27 27 26 26 26 27 27 28 28 29 30 29 29 29 29 29 30 30 31 32 32 32 32 33 33 33 33 34 34
28 28 28 28 28 28 28 27 27 28 28 28 28 28 28 27 26 26 27 28 29 30 31 31 31 31 31 31 31 31 32 32 33 34 34 34 34 34 35 35 36 36
27 28 28 28 28 27 27 27 27 27 27 27 28 28 29 28 28 28 28 29 30 31 32 32 32 32 32 32 32 33 33 34 34 35 35 36 36 37 37 37 38 38
26 26 27 27 27 27 27 27 27 27 27 28 28 28 29 29 29 29 29 30 30 31 32 33 33 33 33 33 34 34 34 35 35 36 36 37 37 38 38 39 40 39
Wind_Direction
212 214 215 216 218 220 220 221 223 223 223 224 225 228 230 231 230 229 229 231 234 235 235 234 233 233 234 234 235 237 240 240 242 243 242 246 253 255 253 253 274 313
214 216 217 218 220 222 223 224 224 225 226 226 227 229 232 233 232 231 231 231 234 236 237 236 236 234 235 236 236 237 239 240 241 242 242 244 247 248 249 250 259 277
217 218 218 220 221 223 224 225 226 227 228 229 229 230 232 234 234 234 234 233 234 237 238 238 238 237 237 237 236 237 238 239 240 242 241 243 245 247 247 249 256 263
218 219 220 221 223 225 226 226 227 228 230 230 231 232 233 235 235 235 236 236 236 237 238 240 240 239 238 237 236 237 238 239 241 242 241 242 244 246 247 249 252 256
219 220 221 223 224 226 227 228 229 230 232 232 233 234 235 236 236 236 237 237 236 237 239 240 241 241 239 238 237 238 238 239 240 241 241 242 244 246 248 250 251 252
220 221 222 224 225 226 228 230 231 232 233 234 235 236 236 237 237 237 237 237 237 238 239 240 241 242 241 239 238 238 239 239 239 240 240 241 244 247 248 250 252 252
222 223 224 225 226 227 229 231 232 233 234 235 236 237 238 238 238 239 238 238 238 239 239 240 241 242 243 241 239 238 239 240 240 240 241 242 244 246 247 249 252 254
223 224 225 226 227 228 229 231 232 234 235 236 237 239 239 239 239 240 240 239 239 239 240 240 241 242 244 243 241 239 239 240 240 240 241 243 244 245 246 248 251 254
223 224 225 226 227 229 230 231 232 234 235 237 238 239 240 241 240 240 240 240 240 240 240 241 241 242 244 245 243 241 240 241 241 241 241 242 244 246 246 247 249 253
223 224 225 226 227 229 230 231 233 235 237 238 238 239 240 241 242 241 241 241 240 240 240 241 242 243 244 245 245 243 241 241 241 241 242 242 244 246 247 248 249 252
224 225 226 227 228 229 230 232 233 234 237 238 239 239 239 240 242 242 241 241 241 241 241 242 243 243 244 245 245 244 242 241 242 242 243 243 244 246 247 248 250 253
224 225 227 228 229 230 231 232 233 234 235 237 239 240 240 240 241 242 242 242 242 242 242 242 243 244 245 245 245 244 242 242 242 243 244 244 245 246 247 248 250 253
224 225 227 228 229 231 232 232 233 233 235 236 239 240 241 240 240 241 243 242 242 242 243 243 244 244 245 245 245 244 243 243 243 244 245 246 246 246 247 248 250 252
225 226 227 228 229 231 231 232 232 233 235 236 237 239 241 241 240 241 242 243 243 243 243 244 245 245 245 245 244 245 244 244 244 245 246 247 248 248 248 249 250 252
225 226 227 228 229 230 231 232 232 233 235 236 237 238 240 241 241 241 242 243 244 244 245 245 246 246 246 245 245 245 245 245 245 246 246 247 249 249 250 250 251 252
226 227 228 229 229 230 231 232 233 235 236 236 237 238 239 240 241 241 242 243 244 245 246 246 247 247 246 245 245 245 246 246 247 247 247 248 249 250 251 251 251 252
226 227 228 229 230 230 232 233 234 236 237 237 237 238 239 240 240 241 241 242 243 245 246 247 248 248 247 245 246 246 247 248 248 248 248 249 250 251 252 252 252 253
227 228 229 230 230 231 232 233 235 236 237 237 238 238 239 239 240 241 241 242 243 244 246 248 249 248 247 246 246 247 247 249 250 251 251 251 251 252 252 253 253 253
227 229 229 231 231 232 233 234 235 236 237 237 238 238 239 240 240 241 243 244 245 245 246 249 251 250 248 248 248 248 248 250 252 253 253 253 254 254 254 254 254 254
228 229 230 230 231 232 233 234 235 236 236 237 238 239 240 241 242 243 245 246 247 248 248 250 252 251 250 250 250 250 250 251 253 255 255 256 255 256 256 256 255 256
228 229 229 230 231 232 233 234 235 236 236 237 239 240 241 243 244 246 247 248 249 250 251 253 253 252 251 252 252 252 253 254 255 257 258 258 257 257 257 258 257 257
228 228 229 229 230 232 233 234 236 236 237 238 239 241 243 245 247 248 249 250 252 253 254 255 256 254 253 254 255 255 255 256 257 258 259 259 259 259 259 259 258 258
228 228 229 230 231 233 234 235 236 237 239 240 241 242 244 246 248 249 251 252 254 255 256 257 258 257 256 256 257 257 258 259 258 259 261 261 261 260 260 261 260 259
229 229 230 232 233 234 236 237 238 239 240 241 243 244 245 246 248 250 253 255 256 257 258 259 260 259 257 257 258 257 258 259 259 260 262 262 261 262 262 262 261 259
230 231 232 234 235 236 237 238 239 241 242 243 245 246 247 248 250 252 254 256 258 259 259 260 261 261 260 259 259 258 259 260 261 261 262 262 263 263 263 263 262 261
231 232 234 235 236 237 238 240 241 243 244 245 247 248 250 250 251 253 255 257 259 260 260 261 262 263 262 261 260 260 260 261 262 262 263 264 264 265 265 264 263 262